Tracking 25723 objects as of 27-Jun-2022
HD Live streaming from Space Station
objects crossing your sky now

STARLINK-2018

Track STARLINK-2018 now!
10-day predictions
STARLINK-2018 is classified as:


NORAD ID: 47640
Int'l Code: 2021-012W
Perigee: 553.2 km
Apogee: 555.4 km
Inclination: 53.1 °
Period: 95.6 minutes
Semi major axis: 6925 km
RCS: Unknown
Launch date: February 16, 2021
Source: United States (US)
Launch site: AIR FORCE EASTERN TEST RANGE (AFETR)
aabbcc
Your satellite tracking list
Your tracking list is empty




NASA's NSSDC Master Catalog

Two Line Element Set (TLE):
1 47640U 21012W   22177.84753808 -.00000709  00000-0 -28673-4 0  9997
2 47640  53.0561  20.2691 0001546  66.3966 293.7186 15.06410080 75716
Source of the keplerian elements: AFSPC